[[{"header":{"parameterUnit":"m.s-1","parameterCategory":1,"la1":30.2991,"la2":30.254,"lo1":-89.0895,"lo2":-89.0444,"dy":0.0017,"dx":0.0017,"nx":28,"ny":28,"refTime":"2025-11-15T03:00:00:Z","depth":0,"parameterNumber":2,"parameterNumberName":"U-component_of_WINDS"},"data":[0,0,0,0,0,0,0,0,0,0,0,0,0,0,0,0,0,0,0,0,0,0,0,0,0,0,0,0,0,0,0,0,0,0,0,0,0,0,0,0,0,0,0,0,0,0,0,0,0,0,0,0,0,0,0,0,0,0,3.0217,3.0219,0,3.0352,3.0353,3.0355,3.0342,3.034,3.0338,3.0336,3.0476,3.0482,3.0488,0,0,0,0,0,0,0,0,0,0,0,0,0,2.9953,2.9958,3.0217,3.0219,3.022,3.0351,3.0353,3.0355,3.0343,3.034,3.0338,3.0335,3.0475,3.0481,3.0488,0,0,0,0,0,0,0,0,0,0,0,0,0,3.0076,2.9959,3.0217,3.023,3.0233,3.0351,3.0353,3.0355,3.0343,3.034,3.0337,3.0334,3.0472,3.0481,3.0489,3.0604,0,0,3.0515,3.0519,0,0,0,0,0,0,0,0,3.0069,3.0085,3.0226,3.0229,3.0232,3.0327,3.0311,3.0439,3.0344,3.0301,3.0336,3.0333,3.0429,3.0441,3.0473,3.061,3.0616,3.0516,3.0521,3.0524,3.0527,0,0,0,0,0,0,0,3.006,3.0079,3.027,3.0228,3.0232,3.023,3.0244,3.0335,3.0381,3.0305,3.0304,3.032,3.043,3.0465,3.0476,3.0618,3.0515,3.0523,3.0528,3.0532,3.0857,3.086,0,0,0,0,0,0,3.0048,3.0072,3.0266,3.0274,3.0141,3.0237,3.0253,3.03,3.038,3.0389,3.0323,3.0319,3.0452,3.0467,3.0481,3.0621,3.0524,3.0532,3.0537,3.0854,3.0858,3.0862,0,0,0,0,0,0,3.0042,3.0065,3.0261,3.0173,3.0198,3.0245,3.0298,3.0304,3.0339,3.0394,3.0402,3.0349,3.045,3.0469,3.0573,3.0626,3.0536,3.0544,3.0849,3.0855,3.086,3.0901,0,0,0,0,0,0,3.0035,3.0064,3.0107,3.0174,3.0203,3.035,3.0301,3.0309,3.0353,3.035,3.0421,3.043,3.0449,3.0561,3.0582,3.0636,3.0551,3.0845,3.0852,3.0858,3.0896,3.0908,3.0918,0,0,0,0,0,3.0026,3.0114,3.0109,3.0132,3.0258,3.0352,3.0369,3.0389,3.0357,3.0402,3.0437,3.0428,3.0617,3.0571,3.0595,3.0653,3.0842,3.085,3.0858,3.0891,3.0905,3.0917,0,0,0,0,0,0,3.0052,3.0123,3.0118,3.0231,3.0286,3.035,3.0407,3.0403,3.0469,3.0463,3.0486,3.0502,3.0607,3.064,3.0588,3.0768,3.0725,3.0738,3.0742,3.0757,3.0767,3.0757,3.0558,0,0,0,0,0,3.007,3.014,3.0199,3.0293,3.032,3.0359,3.0401,3.0412,3.047,3.0493,3.0536,3.0594,3.0666,3.0713,3.0783,3.0901,3.0916,3.0952,3.0963,3.0972,3.0983,3.1048,3.1065,3.0888,3.0888,3.0888,0,0,3.011,3.0157,3.02,3.0299,3.0343,3.0416,3.0379,3.0457,3.0512,3.0505,3.0606,3.064,3.0705,3.0817,3.0868,3.0848,3.1035,3.0982,3.0989,3.0995,3.1058,3.1075,3.109,3.0893,3.0892,3.0891,0,0,3.0219,3.0262,3.0345,3.0389,3.0456,3.0481,3.0501,3.0567,3.0589,3.069,3.0686,3.0752,3.0876,3.0924,3.0964,3.1092,3.1086,3.1115,3.1172,3.1236,3.125,3.1262,3.1308,3.1324,3.1125,3.1126,3.1126,0,3.026,3.0369,3.0388,3.0467,3.0511,3.0508,3.0593,3.0635,3.0722,3.0753,3.0729,3.0885,3.0929,3.1052,3.1083,3.1116,3.114,3.1106,3.1246,3.1259,3.1271,3.1314,3.1332,3.1128,3.1128,3.1128,3.1128,0,3.0416,3.0492,3.0551,3.0633,3.0684,3.0766,3.0798,3.0848,3.0854,3.0882,3.0986,3.1039,3.1119,3.1149,3.1157,3.1274,3.1259,3.1241,3.1198,3.129,3.1332,3.1349,3.1133,3.1132,3.1131,3.113,0,0,3.0544,3.0637,3.0658,3.0696,3.077,3.0829,3.0911,3.0989,3.1031,3.1092,3.1162,3.1267,3.1251,3.1296,3.1309,3.1365,3.1464,3.134,3.1342,3.1361,3.1596,3.1609,3.1628,3.146,3.1464,3.1466,3.159,0,3.066,3.0805,3.0825,3.0953,3.1024,3.1022,3.1094,3.1148,3.1176,3.1242,3.1274,3.1348,3.1321,3.1348,3.1403,3.144,3.1511,3.1431,3.1526,3.1529,3.1509,3.165,3.1664,3.1778,3.1607,3.1609,3.1611,0,3.0815,3.0879,3.1014,3.1078,3.1109,3.1173,3.1246,3.1308,3.137,3.1387,3.1438,3.1445,3.1531,3.1485,3.1604,3.155,3.159,3.1614,3.1619,3.1628,3.1575,3.1662,3.1815,3.1832,3.1637,3.1635,3.1633,0,3.0895,3.1015,3.1111,3.1143,3.1221,3.1266,3.1301,3.1359,3.1405,3.147,3.15,3.1574,3.1615,3.1673,3.17,3.1664,3.1818,3.1774,3.1835,3.1834,3.1867,3.1864,3.2027,3.1894,3.1894,3.1893,3.1893,0,3.1022,3.1105,3.1148,3.1207,3.13,3.1323,3.1414,3.1448,3.15,3.1566,3.157,3.1633,3.1664,3.1732,3.1753,3.1849,3.1868,3.1885,3.1889,3.1884,3.1882,3.191,3.1902,3.1898,3.1897,3.1896,3.1895,0,3.1127,3.1159,3.1263,3.1329,3.1347,3.1413,3.1469,3.1527,3.1556,3.164,3.1661,3.1706,3.1786,3.1818,3.1916,3.1931,3.2041,3.204,3.202,3.2021,3.208,3.2074,3.2267,3.2293,3.2143,3.2144,3.2145,0,3.1205,3.1269,3.1341,3.1385,3.1421,3.1493,3.154,3.1565,3.1614,3.1689,3.1738,3.1818,3.1883,3.201,3.2053,3.2128,3.2128,3.2191,3.214,3.2132,3.2129,3.2124,3.2131,3.22,3.2201,3.2203,3.2204,0,3.1342,3.1355,3.1421,3.1495,3.155,3.1609,3.1666,3.1703,3.1737,3.1792,3.1873,3.1924,3.2024,3.2103,3.2181,3.2217,3.2217,3.222,3.2238,3.2232,3.2218,3.2226,3.2045,3.2215,3.2214,3.2213,3.2212,3.2212,3.1436,3.1492,3.1552,3.1626,3.1672,3.1726,3.1783,3.1819,3.1887,3.197,3.1981,3.2068,3.2129,3.2234,3.2274,3.2343,3.2327,3.2353,3.236,3.2365,3.2369,3.2208,3.2357,3.2357,3.2357,3.2357,3.2356,0,3.1572,3.161,3.1679,3.1759,3.1818,3.1812,3.1875,3.1925,3.2001,3.2058,3.2121,3.2215,3.2292,3.2341,3.2419,3.2465,3.2466,3.2484,3.2481,3.2489,3.2379,3.2355,3.2481,3.2481,3.2481,3.2481,3.2481,3.2481,3.165,3.1745,3.1765,3.1883,3.1921,3.2006,3.2043,3.2093,3.2138,3.2242,3.2305,3.2336,3.239,3.2472,3.2543,3.2555,3.2584,3.2603,3.2614,3.251,3.2497,3.2484,3.2462,3.2609,3.2609,3.2718,3.2719,3.272]},{"header":{"parameterUnit":"m.s-1","parameterCategory":1,"la1":30.2991,"la2":30.254,"lo1":-89.0895,"lo2":-89.0444,"dy":0.0017,"dx":0.0017,"nx":28,"ny":28,"refTime":"2025-11-15T03:00:00:Z","depth":0,"parameterNumber":3,"parameterNumberName":"V-component_of_WINDS"},"data":[0,0,0,0,0,0,0,0,0,0,0,0,0,0,0,0,0,0,0,0,0,0,0,0,0,0,0,0,0,0,0,0,0,0,0,0,0,0,0,0,0,0,0,0,0,0,0,0,0,0,0,0,0,0,0,0,0,0,0.54,0.54,0,0.5448,0.5448,0.5449,0.5452,0.5451,0.5451,0.545,0.55,0.5502,0.5504,0,0,0,0,0,0,0,0,0,0,0,0,0,0.5311,0.5312,0.5399,0.54,0.5401,0.5448,0.5448,0.5449,0.5452,0.5451,0.5451,0.545,0.55,0.5502,0.5504,0,0,0,0,0,0,0,0,0,0,0,0,0,0.5353,0.5313,0.5399,0.5408,0.5409,0.5448,0.5448,0.5449,0.5452,0.5451,0.5451,0.545,0.5499,0.5502,0.5504,0.5538,0,0,0.5513,0.5514,0,0,0,0,0,0,0,0,0.5351,0.5356,0.5406,0.5407,0.5409,0.5443,0.5435,0.5479,0.5452,0.5436,0.545,0.5449,0.5482,0.5486,0.5497,0.554,0.5542,0.5513,0.5515,0.5516,0.5517,0,0,0,0,0,0,0,0.5348,0.5354,0.5419,0.5407,0.5408,0.541,0.5415,0.5444,0.5463,0.5437,0.5438,0.5443,0.5482,0.5494,0.5498,0.5543,0.5513,0.5515,0.5517,0.5518,0.5617,0.5618,0,0,0,0,0,0,0.5343,0.5352,0.5417,0.542,0.5377,0.5412,0.5418,0.5433,0.5463,0.5466,0.5444,0.5443,0.549,0.5495,0.55,0.5542,0.5516,0.5518,0.552,0.5616,0.5617,0.5618,0,0,0,0,0,0,0.5341,0.5349,0.5415,0.5386,0.5395,0.5414,0.5431,0.5434,0.5446,0.5468,0.5471,0.5452,0.5489,0.5496,0.5528,0.5543,0.552,0.5522,0.5615,0.5616,0.5617,0.5625,0,0,0,0,0,0,0.5339,0.5348,0.5361,0.5386,0.5396,0.5443,0.5432,0.5436,0.5451,0.545,0.5476,0.548,0.5489,0.5524,0.5531,0.5547,0.5524,0.5613,0.5615,0.5617,0.5624,0.5627,0.5629,0,0,0,0,0,0.5335,0.5361,0.5361,0.5369,0.5412,0.5444,0.5449,0.5459,0.5452,0.5465,0.5479,0.5479,0.554,0.5528,0.5535,0.5552,0.5612,0.5615,0.5617,0.5622,0.5626,0.5629,0,0,0,0,0,0,0.5337,0.5364,0.5365,0.54,0.5419,0.5444,0.5461,0.5463,0.5485,0.5484,0.5495,0.5501,0.5534,0.5546,0.5531,0.5586,0.5576,0.5579,0.5577,0.5581,0.5584,0.558,0.5527,0,0,0,0,0,0.5341,0.5364,0.5387,0.5415,0.5425,0.5441,0.5455,0.5461,0.5482,0.549,0.5507,0.5527,0.5551,0.5566,0.5589,0.5625,0.5631,0.564,0.5643,0.5645,0.5649,0.5669,0.5674,0.5625,0.5625,0.5625,0,0,0.535,0.5368,0.5382,0.5416,0.5432,0.5456,0.5448,0.5474,0.5492,0.5494,0.5526,0.5539,0.5562,0.5597,0.5613,0.5608,0.5663,0.5648,0.565,0.5652,0.5672,0.5677,0.5681,0.5627,0.5626,0.5626,0,0,0.538,0.5395,0.5421,0.5437,0.5461,0.5472,0.5478,0.5502,0.5511,0.5543,0.5546,0.5567,0.5608,0.5625,0.5639,0.5674,0.5676,0.5681,0.5696,0.5716,0.572,0.5724,0.5737,0.5742,0.5685,0.5685,0.5685,0,0.5388,0.5424,0.5434,0.5459,0.5475,0.5478,0.5505,0.552,0.555,0.5561,0.5555,0.5606,0.5622,0.5661,0.567,0.568,0.5688,0.5679,0.5719,0.5722,0.5726,0.5739,0.5744,0.5685,0.5685,0.5685,0.5685,0,0.5434,0.5459,0.5477,0.5506,0.5523,0.5549,0.5563,0.5579,0.5584,0.5595,0.5628,0.5647,0.5675,0.5684,0.5689,0.5724,0.572,0.5716,0.5706,0.5731,0.5744,0.5749,0.5686,0.5686,0.5686,0.5686,0,0,0.5466,0.55,0.5507,0.5521,0.5548,0.5567,0.5593,0.562,0.5634,0.5655,0.5677,0.5712,0.5709,0.5724,0.5731,0.5748,0.5776,0.5742,0.5743,0.5749,0.5817,0.582,0.5826,0.5777,0.5778,0.5779,0.5815,0,0.5499,0.5545,0.5555,0.5596,0.5619,0.5623,0.5646,0.5665,0.5676,0.5698,0.571,0.5735,0.5728,0.5738,0.5755,0.5769,0.579,0.5767,0.5799,0.58,0.5794,0.5832,0.5836,0.587,0.582,0.5821,0.5822,0,0.5543,0.5566,0.5608,0.5633,0.5643,0.5663,0.5689,0.571,0.5732,0.5739,0.5756,0.5761,0.5789,0.5776,0.5815,0.5799,0.5812,0.5821,0.5823,0.5827,0.5813,0.5839,0.5881,0.5886,0.5829,0.5829,0.5828,0,0.5564,0.5604,0.5635,0.5647,0.5675,0.569,0.5703,0.5724,0.5739,0.5762,0.5772,0.5797,0.5811,0.5831,0.5842,0.5832,0.588,0.5869,0.5887,0.5887,0.5898,0.5898,0.5944,0.5905,0.5905,0.5905,0.5905,0,0.56,0.5626,0.5645,0.5664,0.5694,0.5705,0.5734,0.5746,0.5765,0.5787,0.5791,0.5812,0.5826,0.5848,0.5857,0.5888,0.5894,0.5901,0.5903,0.5901,0.5901,0.5911,0.5909,0.5907,0.5906,0.5906,0.5906,0,0.5628,0.5641,0.5675,0.57,0.5707,0.5728,0.5749,0.5768,0.5779,0.5807,0.5814,0.5832,0.5859,0.5872,0.5905,0.5911,0.5947,0.5947,0.594,0.5941,0.5959,0.5957,0.6015,0.6023,0.5978,0.5978,0.5979,0,0.565,0.5671,0.5698,0.5713,0.5726,0.575,0.5766,0.5778,0.5794,0.5821,0.5837,0.5864,0.5886,0.5929,0.5945,0.5971,0.5972,0.599,0.5976,0.5974,0.5974,0.5973,0.5975,0.5993,0.5994,0.5994,0.5994,0,0.5689,0.5695,0.5718,0.5744,0.5763,0.5784,0.5804,0.5816,0.5831,0.5849,0.5877,0.5894,0.5928,0.5956,0.5982,0.5996,0.5998,0.5999,0.6005,0.6003,0.5998,0.6002,0.5948,0.5997,0.5997,0.5997,0.5997,0.5997,0.5716,0.5735,0.5757,0.5782,0.5799,0.5818,0.5837,0.5851,0.5874,0.5903,0.5908,0.5938,0.596,0.5996,0.601,0.6034,0.603,0.6038,0.604,0.6042,0.6044,0.5994,0.6038,0.6038,0.6038,0.6038,0.6038,0,0.5756,0.577,0.5794,0.5823,0.5843,0.5843,0.5866,0.5883,0.5909,0.5929,0.5951,0.5983,0.6009,0.6027,0.6054,0.6069,0.6071,0.6076,0.6076,0.6079,0.6045,0.6038,0.6074,0.6074,0.6074,0.6074,0.6074,0.6074,0.5779,0.5811,0.5819,0.586,0.5874,0.5903,0.5916,0.5934,0.595,0.5986,0.6008,0.6019,0.6039,0.6067,0.6092,0.6096,0.6106,0.6112,0.6116,0.6085,0.6081,0.6077,0.6071,0.6113,0.6113,0.6148,0.6148,0.6149]}]]